Weather History for Wright-Patt AFB, OH

Change the Weather History Date:

Monday, May 20, 2013

  Actual Average Record
Temperature  
Mean Temperature 74 °F -  
Max Temperature 84 °F 70 °F 88 °F (2012)
Min Temperature 66 °F 49 °F 37 °F (2002)
Cooling Degree Days 10    
Growing Degree Days 24 (Base 50)    
Moisture  
Dew Point 66 °F    
Average Humidity 76    
Maximum Humidity 100    
Minimum Humidity 52    
Precipitation  
Precipitation 0.00 in - - ()
Sea Level Pressure  
Sea Level Pressure 29.95 in    
Wind  
Wind Speed 6 mph (South)    
Max Wind Speed 14 mph    
Max Gust Speed 21 mph    
Visibility 9 miles    
Events Fog , Rain    
Averages and records for this station are not official NWS values.
T = Trace of Precipitation, MM = Missing Value Source: NWS Daily Summary

Daily Weather History Graph

Daily Weather History Graph

Search for Another Location

Airport:

Trip Planner

Search our weather history database for the weather conditions in past years. The results will help you decide how hot, cold, wet, or windy it might be!

Date:

Astronomy

May. 20, 2013 Rise Set
Actual Time 6:16 AM EDT 8:49 PM EDT
Civil Twilight 5:45 AM EDT 9:20 PM EDT
Nautical Twilight 5:07 AM EDT 9:58 PM EDT
Astronomical Twilight 4:24 AM EDT 10:42 PM EDT
Moon 3:56 PM EDT (5/20) 3:10 AM EDT (5/20)
Length of Visible Light 15h 34m
Length of Day
14h 32m
Waxing Gibbous, 75% of the Moon is Illuminated
May 20
Waxing Gibbous
May 25
Full
May 31
Last Quarter
Jun 8
New
Jun 16
First Quarter

Hourly Weather History & Observations

Time (EDT) Temp. Heat Index Dew Point Humidity Pressure Visibility Wind Dir Wind Speed Gust Speed Precip Events Conditions
12:58 AM 69.6 °F - 63.7 °F 81% 29.95 in 10.0 mi SE 3.5 mph - N/A   Clear
1:58 AM 69.1 °F - 63.9 °F 83% 29.95 in 10.0 mi East 2.3 mph - N/A   Partly Cloudy
2:58 AM 68.2 °F - 64.2 °F 87% 29.94 in 10.0 mi SSE 3.5 mph - N/A   Partly Cloudy
3:58 AM 67.8 °F - 65.1 °F 91% 29.94 in 10.0 mi SSE 3.5 mph - N/A   Clear
4:58 AM 67.1 °F - 65.8 °F 96% 29.94 in 7.0 mi South 2.3 mph - N/A   Clear
5:08 AM 66.2 °F - 66.2 °F 100% 29.94 in 9.0 mi SE 3.5 mph - N/A Fog Patches of Fog
5:58 AM 68.4 °F - 68.0 °F 99% 29.96 in 7.0 mi SSE 4.6 mph - N/A Fog Patches of Fog
6:08 AM 68.0 °F - 68.0 °F 100% 29.95 in 3.0 mi ESE 4.6 mph - N/A   Scattered Clouds
6:58 AM 68.0 °F - 67.6 °F 99% 29.96 in 3.0 mi South 5.8 mph - N/A   Partly Cloudy
7:08 AM 68.0 °F - 68.0 °F 100% 29.96 in 6.0 mi South 5.8 mph - N/A   Partly Cloudy
7:38 AM 69.8 °F - 68.0 °F 94% 29.96 in 6.0 mi South 8.1 mph - N/A   Mostly Cloudy
7:58 AM 69.4 °F - 69.3 °F 99% 29.97 in 6.0 mi South 8.1 mph - N/A   Mostly Cloudy
8:18 AM 69.8 °F - 69.8 °F 100% 29.98 in 6.0 mi South 6.9 mph - N/A   Scattered Clouds
8:58 AM 73.4 °F - 68.5 °F 85% 29.99 in 10.0 mi SSW 8.1 mph - N/A   Partly Cloudy
9:48 AM 75.2 °F - 68.0 °F 78% 30.02 in 10.0 mi WSW 8.1 mph - N/A   Overcast
9:58 AM 74.1 °F - 67.3 °F 79% 30.01 in 10.0 mi SW 8.1 mph - N/A   Overcast
10:18 AM 75.2 °F - 68.0 °F 78% 30.01 in 10.0 mi SW 9.2 mph - N/A   Mostly Cloudy
10:55 AM 76.6 °F - 67.3 °F 73% 29.99 in 10.0 mi SSW 10.4 mph - N/A   Mostly Cloudy
11:35 AM 77.0 °F - 68.0 °F 74% 29.98 in 10.0 mi South 4.6 mph - N/A   Scattered Clouds
11:45 AM 78.8 °F - 68.0 °F 69% 29.99 in 10.0 mi SW 9.2 mph - N/A   Mostly Cloudy
11:58 AM 77.9 °F - 67.1 °F 69% 29.99 in 10.0 mi SSW 8.1 mph - N/A   Mostly Cloudy
12:28 PM 78.8 °F - 68.0 °F 69% 29.98 in 10.0 mi SSW 9.2 mph - N/A   Scattered Clouds
12:58 PM 80.4 °F 82.7 °F 66.7 °F 63% 29.96 in 10.0 mi South 10.4 mph - N/A   Partly Cloudy
1:58 PM 81.7 °F 84.0 °F 66.7 °F 60% 29.97 in 10.0 mi SSW 10.4 mph - N/A   Mostly Cloudy
2:58 PM 82.2 °F 84.2 °F 65.5 °F 57% 29.94 in 10.0 mi SSW 12.7 mph - N/A   Scattered Clouds
3:58 PM 82.8 °F 84.3 °F 64.8 °F 54% 29.92 in 10.0 mi South 13.8 mph - N/A   Scattered Clouds
4:58 PM 83.7 °F 85.1 °F 64.6 °F 52% 29.91 in 10.0 mi South 11.5 mph 20.7 mph N/A   Scattered Clouds
5:58 PM 83.1 °F 84.8 °F 64.8 °F 54% 29.91 in 10.0 mi South 13.8 mph 19.6 mph N/A   Mostly Cloudy
6:58 PM 82.4 °F 84.2 °F 65.3 °F 56% 29.91 in 10.0 mi South 9.2 mph - N/A   Scattered Clouds
7:58 PM 79.2 °F - 63.1 °F 58% 29.91 in 10.0 mi SSW 8.1 mph - N/A   Mostly Cloudy
8:58 PM 78.1 °F - 62.2 °F 58% 29.91 in 10.0 mi South 6.9 mph - N/A   Mostly Cloudy
9:19 PM 78.8 °F - 62.6 °F 57% 29.90 in 10.0 mi SSE 9.2 mph - N/A Rain Light Rain
9:20 PM 78.8 °F - 62.6 °F 57% 29.90 in 10.0 mi SSE 9.2 mph - N/A   Clear
9:23 PM 77.0 °F - 62.6 °F 61% 29.90 in 10.0 mi South 9.2 mph - N/A   Mostly Cloudy
9:58 PM 76.8 °F - 64.9 °F 67% 29.89 in 10.0 mi SSE 6.9 mph - N/A   Mostly Cloudy
10:58 PM 75.2 °F - 65.8 °F 73% 29.89 in 10.0 mi SSE 8.1 mph - N/A   Mostly Cloudy
11:58 PM 74.7 °F - 65.5 °F 73% 29.90 in 10.0 mi SSE 8.1 mph - N/A   Scattered Clouds